GW1778 Weather Reports


time (UTC)temp
C
wind
direction
speed
KPH
gust
KPH
rain 1hr
cm
rain 24hr
cm
rain mn
cm
humidity
%
barometer
mb
20260508060735 15 292 0.0 0.0 0.00 0.00 0.00 99 1017.1
20260508060233 15 319 0.0 0.0 0.00 0.00 0.00 99 1017.2
20260508055728 15 291 0.0 0.0 0.00 0.00 0.00 99 1017.1
20260508055225 15 292 0.0 0.0 0.00 0.00 0.00 99 1017.1
20260508054721 15 278 0.0 0.0 0.00 0.00 0.00 99 1017.0
20260508054220 15 305 0.0 0.0 0.00 0.00 0.00 99 1017.2
20260508053716 15 295 0.0 0.0 0.00 0.00 0.00 99 1017.1
20260508053214 15 295 0.0 0.0 0.00 0.00 0.00 99 1017.6
20260508052711 15 298 0.0 0.0 0.00 0.00 0.00 99 1017.2
20260508052208 15 289 0.0 0.0 0.00 0.00 0.00 99 1017.4
20260508051704 15 295 0.0 0.0 0.00 0.00 0.00 99 1017.1
20260508051159 15 292 0.0 0.0 0.00 0.00 0.00 99 1017.3
20260508050656 15 307 0.0 0.0 0.00 0.00 0.00 99 1017.2
20260508050154 15 307 0.0 0.0 0.00 0.00 0.00 99 1017.2
20260508045649 15 308 0.0 0.0 0.00 0.00 0.00 99 1017.4
20260508045147 15 319 0.0 0.0 0.00 0.00 0.00 99 1017.2
20260508044644 15 296 0.0 0.0 0.00 0.00 0.00 99 1017.3
20260508044140 15 303 0.0 0.0 0.00 0.00 0.00 99 1017.2
20260508043636 15 301 0.0 0.0 0.00 0.00 0.00 99 1017.0
20260508043135 15 294 0.0 0.0 0.00 0.00 0.00 99 1017.0
20260508042631 15 299 0.0 0.0 0.00 0.00 0.00 99 1016.9
20260508042128 15 298 0.0 0.0 0.00 0.00 0.00 99 1017.0
20260508041624 15 292 0.0 0.0 0.00 0.00 0.00 99 1016.9
20260508041121 15 298 0.0 0.0 0.00 0.00 0.00 99 1017.0
20260508040618 15 302 0.0 0.0 0.00 0.00 0.00 99 1017.1
20260508040116 15 296 0.0 0.0 0.00 0.00 0.00 99 1017.1
20260508035613 15 299 0.0 0.0 0.00 0.00 0.00 99 1017.1
20260508035110 15 297 0.0 0.0 0.00 0.00 0.00 99 1017.1
20260508034606 15 297 0.0 0.0 0.00 0.00 0.00 99 1017.4
20260508034103 15 296 0.0 0.0 0.00 0.00 0.00 99 1017.1
20260508033601 15 298 0.0 0.0 0.00 0.00 0.00 99 1017.2
20260508033059 15 297 0.0 0.0 0.00 0.00 0.00 99 1017.1
20260508032555 15 313 0.0 0.0 0.00 0.00 0.00 99 1017.3
20260508032053 15 304 0.0 0.0 0.00 0.00 0.00 99 1017.6
20260508031550 15 306 0.0 0.0 0.00 0.00 0.00 99 1017.3
20260508031046 15 299 0.0 0.0 0.00 0.00 0.00 99 1017.6
20260508030542 15 298 0.0 0.0 0.00 0.00 0.00 99 1017.7
20260508030041 15 304 0.0 0.0 0.00 0.00 0.00 99 1017.8
20260508025536 15 294 0.0 0.0 0.00 0.00 0.00 99 1017.3
20260508025033 15 292 0.0 0.0 0.00 0.00 0.00 99 1017.4
20260508024529 15 295 0.0 0.0 0.00 0.00 0.00 99 1017.3
20260508024027 15 304 0.0 0.0 0.00 0.00 0.00 99 1017.6
20260508023523 15 305 0.0 0.0 0.00 0.00 0.00 99 1017.4
20260508023021 15 303 0.0 0.0 0.00 0.00 0.00 99 1017.6
20260508022516 15 314 0.0 0.0 0.00 0.00 0.00 99 1017.4
20260508022013 15 318 0.0 0.0 0.00 0.00 0.00 99 1017.7
20260508021509 15 295 0.0 0.0 0.00 0.00 0.00 99 1017.4
20260508021005 15 303 0.0 0.0 0.00 0.00 0.00 99 1017.8
20260508020503 15 303 0.0 0.0 0.00 0.00 0.00 99 1017.7
20260508020001 15 309 0.0 0.0 0.00 0.00 0.00 99 1017.7
20260508015458 15 304 0.0 0.0 0.00 0.00 0.00 99 1017.7
20260508014954 15 303 0.0 0.0 0.00 0.00 0.00 99 1018.0
20260508014451 15 308 0.0 0.0 0.00 0.00 0.00 99 1017.8
20260508013947 15 301 0.0 0.0 0.00 0.00 0.00 99 1017.9
20260508013443 15 303 0.0 0.0 0.00 0.00 0.00 99 1018.0
20260508012941 15 303 0.0 0.0 0.00 0.00 0.00 99 1018.0
20260508012437 15 305 0.0 0.0 0.00 0.00 0.00 99 1018.1
20260508011935 15 302 0.0 0.0 0.00 0.00 0.00 99 1018.3
20260508011434 15 310 0.0 0.0 0.00 0.00 0.00 99 1018.2
20260508010930 15 310 0.0 0.0 0.00 0.00 0.00 99 1018.3
20260508010427 15 308 0.0 0.0 0.00 0.00 0.00 99 1018.1
20260508005924 15 303 0.0 0.0 0.00 0.00 0.00 99 1018.2
20260508005421 15 304 0.0 0.0 0.00 0.00 0.00 99 1018.3
20260508004917 15 306 0.0 0.0 0.00 0.00 0.00 99 1018.2
20260508004413 15 303 0.0 0.0 0.00 0.00 0.00 99 1018.4
20260508003910 15 303 0.0 0.0 0.00 0.00 0.00 99 1018.4
20260508003407 15 307 0.0 0.0 0.00 0.00 0.00 99 1018.4
20260508002904 15 307 0.0 0.0 0.00 0.00 0.00 99 1018.3
20260508002400 15 312 0.0 0.0 0.00 0.00 0.00 99 1018.3
20260508001857 15 310 0.0 0.0 0.00 0.00 0.00 99 1018.5
20260508001353 15 305 0.0 0.0 0.00 0.00 0.00 99 1018.4
20260508000850 15 303 0.0 0.0 0.00 0.00 0.00 99 1018.5
20260508000346 15 303 0.0 0.0 0.00 0.00 0.00 99 1018.0
20260507235842 16 305 0.0 0.0 0.00 0.00 0.00 99 1018.0
20260507235340 16 303 0.0 0.0 0.00 0.00 0.00 99 1018.0
20260507234837 16 296 0.0 0.0 0.00 0.00 0.00 99 1017.8
20260507234334 16 302 0.0 0.0 0.00 0.00 0.00 99 1018.2
20260507233830 16 296 0.0 0.0 0.00 0.00 0.00 99 1018.0
20260507233328 16 298 0.0 0.0 0.00 0.00 0.00 99 1018.0
20260507232826 16 304 0.0 0.0 0.00 0.00 0.00 99 1018.2
20260507232322 16 294 0.0 0.0 0.00 0.00 0.00 99 1018.0
20260507231819 16 316 0.0 0.0 0.00 0.00 0.00 99 1017.8
20260507231316 16 313 0.0 0.0 0.00 0.00 0.00 99 1017.8
20260507230812 16 303 0.0 0.0 0.00 0.00 0.00 99 1018.1
20260507230309 16 307 0.0 0.0 0.00 0.00 0.00 99 1018.1
20260507225804 16 308 0.0 0.0 0.00 0.00 0.00 99 1018.0
20260507225300 16 315 1.6 1.6 0.00 0.00 0.00 99 1018.1
20260507224756 16 304 0.0 0.0 0.00 0.00 0.00 99 1017.9
20260507224253 16 305 0.0 0.0 0.00 0.00 0.00 98 1018.1
20260507223749 17 299 0.0 0.0 0.00 0.00 0.00 98 1018.0
20260507223246 17 315 0.0 0.0 0.00 0.00 0.00 98 1018.0
20260507222743 17 316 0.0 0.0 0.00 0.00 0.00 97 1017.8
20260507222239 17 309 0.0 0.0 0.00 0.00 0.00 97 1018.0
20260507221736 17 306 0.0 0.0 0.00 0.00 0.00 96 1017.9
20260507221232 17 314 0.0 0.0 0.00 0.00 0.00 97 1017.9
20260507220729 17 308 0.0 0.0 0.00 0.00 0.00 96 1017.8
20260507220228 17 303 0.0 0.0 0.00 0.00 0.00 94 1017.6
20260507215723 17 303 0.0 0.0 0.00 0.00 0.00 94 1017.7
20260507215221 17 304 0.0 0.0 0.00 0.00 0.00 94 1017.7
20260507214718 -17 0.0 0.0 0.00 0.00 0.00 1017.7
20260507214215 -17 0.0 0.0 0.00 0.00 0.00 1017.6
20260507213710 -17 0.0 0.0 0.00 0.00 0.00 1017.7
20260507213208 -17 0.0 0.0 0.00 0.00 0.00 1017.8
20260507212704 -17 0.0 0.0 0.00 0.00 0.00 1017.6
20260507212200 -17 0.0 0.0 0.00 0.00 0.00 1017.7
20260507211657 -17 0.0 0.0 0.00 0.00 0.00 1017.7
20260507211153 -17 0.0 0.0 0.00 0.00 0.00 1017.6
20260507210650 -17 0.0 0.0 0.00 0.00 0.00 1017.6
20260507210147 -17 0.0 0.0 0.00 0.00 0.00 1017.7
20260507205643 22 331 1.6 1.6 0.00 0.00 0.00 72 1017.3
20260507205140 22 331 1.6 1.6 0.00 0.00 0.00 72 1017.6
20260507204636 22 331 1.6 1.6 0.00 0.00 0.00 72 1017.4
20260507204134 22 328 1.6 3.2 0.00 0.00 0.00 71 1017.7
20260507203632 23 19 3.2 3.2 0.00 0.00 0.00 70 1017.4
20260507203129 23 337 1.6 1.6 0.00 0.00 0.00 69 1017.4
20260507202625 23 336 3.2 3.2 0.00 0.00 0.00 68 1017.6
20260507202121 23 6 3.2 3.2 0.00 0.00 0.00 66 1017.4
20260507201616 25 12 3.2 4.8 0.00 0.00 0.00 67 1017.6
20260507201114 25 359 3.2 4.8 0.00 0.00 0.00 64 1017.7
20260507200609 25 351 4.8 4.8 0.00 0.00 0.00 63 1017.6
20260507200105 25 4 4.8 4.8 0.00 0.00 0.00 63 1017.4
20260507195603 25 24 4.8 4.8 0.00 0.00 0.00 62 1017.3
20260507195100 25 17 4.8 6.4 0.00 0.00 0.00 61 1017.6
20260507194556 25 349 8.0 12.9 0.00 0.00 0.00 63 1017.9
20260507194052 25 341 4.8 4.8 0.00 0.00 0.00 65 1017.8
20260507193549 25 5 4.8 6.4 0.00 0.00 0.00 61 1017.9
20260507193046 26 345 8.0 11.3 0.00 0.00 0.00 61 1017.7
20260507192542 25 12 6.4 6.4 0.00 0.00 0.00 59 1017.7
20260507192039 25 75 4.8 4.8 0.00 0.00 0.00 61 1017.6
20260507191534 25 356 3.2 3.2 0.00 0.00 0.00 61 1017.9
20260507191032 25 39 6.4 6.4 0.00 0.00 0.00 60 1017.7
20260507190529 26 27 6.4 8.0 0.00 0.00 0.00 59 1017.7
20260507190028 26 356 8.0 12.9 0.00 0.00 0.00 60 1017.8
20260507185526 26 337 11.3 16.1 0.00 0.00 0.00 58 1018.0
20260507185022 26 67 6.4 6.4 0.00 0.00 0.00 59 1018.0
20260507184520 26 4 8.0 12.9 0.00 0.00 0.00 63 1018.0
20260507184018 25 342 4.8 4.8 0.00 0.00 0.00 62 1018.0
20260507183514 25 55 6.4 8.0 0.00 0.00 0.00 61 1018.1
20260507183011 26 348 3.2 4.8 0.00 0.00 0.00 61 1018.2
20260507182507 26 31 6.4 8.0 0.00 0.00 0.00 60 1018.3
20260507182003 26 54 6.4 8.0 0.00 0.00 0.00 58 1018.2
20260507181500 26 6 3.2 3.2 0.00 0.00 0.00 61 1018.2
20260507180956 26 341 8.0 11.3 0.00 0.00 0.00 61 1018.2
20260507180453 26 14 8.0 8.0 0.00 0.00 0.00 58 1018.5
20260507175949 26 2 3.2 3.2 0.00 0.00 0.00 63 1018.4
20260507175446 25 338 1.6 3.2 0.00 0.00 0.00 63 1018.3
20260507174943 25 2 8.0 16.1 0.00 0.00 0.00 61 1018.4
20260507174441 26 5 8.0 14.5 0.00 0.00 0.00 59 1018.3
20260507173938 26 16 4.8 6.4 0.00 0.00 0.00 58 1018.5
20260507173435 26 23 8.0 11.3 0.00 0.00 0.00 62 1018.7
20260507172932 25 0 4.8 4.8 0.00 0.00 0.00 64 1018.7
20260507172428 25 6 6.4 8.0 0.00 0.00 0.00 62 1018.5
20260507171924 25 340 8.0 11.3 0.00 0.00 0.00 64 1018.8
20260507171421 26 329 12.9 17.7 0.00 0.00 0.00 59 1019.0
20260507170918 26 57 4.8 6.4 0.00 0.00 0.00 59 1018.9
20260507170415 26 6 9.7 12.9 0.00 0.00 0.00 58 1018.8
20260507165911 26 9 4.8 6.4 0.00 0.00 0.00 58 1019.0
20260507165407 26 52 4.8 4.8 0.00 0.00 0.00 62 1019.2
20260507164903 25 349 16.1 19.3 0.00 0.00 0.00 57 1019.0
20260507164400 26 31 9.7 11.3 0.00 0.00 0.00 57 1019.1
20260507163857 26 49 6.4 6.4 0.00 0.00 0.00 59 1019.2
20260507163354 25 298 6.4 8.0 0.00 0.00 0.00 58 1019.5
20260507162851 25 330 8.0 12.9 0.00 0.00 0.00 57 1019.3
20260507162346 25 3 9.7 14.5 0.00 0.00 0.00 58 1019.6
20260507161844 25 48 11.3 16.1 0.00 0.00 0.00 58 1019.7
20260507161340 25 356 12.9 14.5 0.00 0.00 0.00 57 1019.6
20260507160837 25 355 8.0 11.3 0.00 0.00 0.00 61 1019.6
20260507160332 25 332 3.2 3.2 0.00 0.00 0.00 64 1019.9
20260507155829 25 17 4.8 4.8 0.00 0.00 0.00 61 1020.1
20260507155325 25 6 6.4 11.3 0.00 0.00 0.00 63 1019.7
20260507154822 25 47 6.4 8.0 0.00 0.00 0.00 62 1020.1
20260507154319 25 100 6.4 8.0 0.00 0.00 0.00 63 1020.2
20260507153816 25 64 4.8 4.8 0.00 0.00 0.00 63 1020.1
20260507153312 25 338 4.8 4.8 0.00 0.00 0.00 64 1020.2
20260507152809 25 2 4.8 6.4 0.00 0.00 0.00 64 1020.3
20260507152306 25 37 4.8 4.8 0.00 0.00 0.00 64 1020.5
20260507151801 25 56 6.4 8.0 0.00 0.00 0.00 61 1020.7
20260507151257 25 19 4.8 6.4 0.00 0.00 0.00 62 1020.7
20260507150754 24 276 6.4 8.0 0.00 0.00 0.00 63 1020.8
20260507150251 25 65 6.4 8.0 0.00 0.00 0.00 62 1020.7
20260507145747 24 73 4.8 6.4 0.00 0.00 0.00 63 1021.2
20260507145244 24 35 6.4 6.4 0.00 0.00 0.00 64 1021.2
20260507144741 24 61 9.7 11.3 0.00 0.00 0.00 61 1021.3
20260507144239 24 76 9.7 12.9 0.00 0.00 0.00 62 1021.3
20260507143735 24 341 3.2 3.2 0.00 0.00 0.00 64 1021.3
20260507143232 23 46 6.4 6.4 0.00 0.00 0.00 63 1021.3
20260507142728 24 359 4.8 6.4 0.00 0.00 0.00 63 1020.9
20260507142225 24 67 8.0 8.0 0.00 0.00 0.00 61 1021.4
20260507141721 24 74 6.4 6.4 0.00 0.00 0.00 62 1021.2
20260507141218 23 71 9.7 12.9 0.00 0.00 0.00 64 1021.4
20260507140714 23 30 4.8 8.0 0.00 0.00 0.00 63 1021.2
20260507140212 23 341 4.8 6.4 0.00 0.00 0.00 65 1021.1
20260507135709 23 82 6.4 8.0 0.00 0.00 0.00 65 1021.2
20260507135206 23 44 6.4 8.0 0.00 0.00 0.00 64 1021.4
20260507134702 23 309 3.2 3.2 0.00 0.00 0.00 67 1021.5
20260507134159 23 2 4.8 6.4 0.00 0.00 0.00 66 1021.4
20260507133654 23 46 6.4 8.0 0.00 0.00 0.00 66 1021.3
20260507133152 23 74 6.4 8.0 0.00 0.00 0.00 68 1021.4
20260507132649 23 349 3.2 3.2 0.00 0.00 0.00 70 1021.1
20260507132145 22 79 6.4 6.4 0.00 0.00 0.00 68 1021.4
20260507131643 22 70 8.0 11.3 0.00 0.00 0.00 70 1021.2
20260507131140 22 25 6.4 8.0 0.00 0.00 0.00 71 1021.4
20260507130636 22 37 3.2 4.8 0.00 0.00 0.00 73 1021.5
20260507130134 22 57 3.2 4.8 0.00 0.00 0.00 73 1021.4
20260507125633 22 41 3.2 3.2 0.00 0.00 0.00 72 1021.6
20260507125130 22 5 4.8 6.4 0.00 0.00 0.00 75 1021.6
20260507124626 22 352 1.6 3.2 0.00 0.00 0.00 74 1021.7
20260507124124 22 45 4.8 4.8 0.00 0.00 0.00 73 1021.6
20260507123622 22 79 3.2 3.2 0.00 0.00 0.00 75 1021.5
20260507123119 23 309 1.6 1.6 0.00 0.00 0.00 74 1021.7
20260507122614 23 127 3.2 4.8 0.00 0.00 0.00 72 1021.5
20260507122110 22 353 1.6 1.6 0.00 0.00 0.00 76 1021.4
20260507121606 22 151 3.2 3.2 0.00 0.00 0.00 76 1021.3
20260507121102 21 5 1.6 1.6 0.00 0.00 0.00 81 1021.5
20260507120558 21 16 0.0 0.0 0.00 0.00 0.00 85 1021.4
20260507120055 20 339 0.0 0.0 0.00 0.00 0.00 87 1021.5
20260507115551 -17 0.0 0.0 0.00 0.00 0.00 1021.3
20260507115047 16 330 0.0 0.0 0.00 0.00 0.00 99 1021.4
20260507114543 16 330 0.0 0.0 0.00 0.00 0.00 99 1021.6
20260507114041 16 329 0.0 0.0 0.00 0.00 0.00 99 1021.6
20260507113537 16 319 0.0 0.0 0.00 0.00 0.00 99 1021.8
20260507113035 16 302 0.0 0.0 0.00 0.00 0.00 99 1021.5
20260507112532 16 305 0.0 0.0 0.00 0.00 0.00 99 1021.9
20260507112029 15 299 0.0 0.0 0.00 0.00 0.00 99 1021.8
20260507111527 15 313 0.0 0.0 0.00 0.00 0.00 99 1021.6
20260507111023 15 313 0.0 0.0 0.00 0.00 0.00 99 1021.6
20260507110519 15 306 0.0 0.0 0.00 0.00 0.00 99 1021.5
20260507110016 14 300 0.0 0.0 0.00 0.00 0.00 99 1021.5
20260507105513 13 308 0.0 0.0 0.00 0.00 0.00 99 1021.6
20260507105009 13 308 0.0 0.0 0.00 0.00 0.00 99 1021.6
20260507104507 13 307 0.0 0.0 0.00 0.00 0.00 99 1021.5
20260507104003 12 294 0.0 0.0 0.00 0.00 0.00 99 1021.5
20260507103500 12 301 0.0 0.0 0.00 0.00 0.00 99 1021.3
20260507102955 12 305 0.0 0.0 0.00 0.00 0.00 99 1021.7
20260507102452 12 314 1.6 1.6 0.00 0.00 0.00 99 1021.2
20260507101949 11 295 0.0 0.0 0.00 0.00 0.00 99 1021.5
20260507101443 12 294 0.0 0.0 0.00 0.00 0.00 99 1021.4
20260507100940 11 313 0.0 0.0 0.00 0.00 0.00 99 1021.5
20260507100438 11 295 0.0 0.0 0.00 0.00 0.00 99 1021.3
20260507095936 11 294 0.0 0.0 0.00 0.00 0.00 99 1021.4
20260507095433 11 294 0.0 0.0 0.00 0.00 0.00 99 1021.4
20260507094930 11 294 0.0 0.0 0.00 0.00 0.00 99 1021.4
20260507094426 11 295 0.0 0.0 0.00 0.00 0.00 99 1021.3
20260507093923 11 297 0.0 0.0 0.00 0.00 0.00 99 1021.5
20260507093421 11 300 0.0 0.0 0.00 0.00 0.00 99 1021.2
20260507092920 11 302 0.0 0.0 0.00 0.00 0.00 99 1021.4
20260507092415 11 308 0.0 0.0 0.00 0.00 0.00 99 1021.4
20260507091912 11 297 0.0 0.0 0.00 0.00 0.00 99 1021.6
20260507091408 11 294 0.0 0.0 0.00 0.00 0.00 99 1021.2
20260507090904 12 299 0.0 0.0 0.00 0.00 0.00 99 1021.5
20260507090401 12 303 0.0 0.0 0.00 0.00 0.00 99 1021.4
20260507085858 12 302 0.0 0.0 0.00 0.00 0.00 99 1021.3
20260507085354 12 302 0.0 0.0 0.00 0.00 0.00 99 1021.2
20260507084852 12 300 0.0 0.0 0.00 0.00 0.00 99 1021.4
20260507084348 12 295 0.0 0.0 0.00 0.00 0.00 99 1021.1
20260507083846 12 295 0.0 0.0 0.00 0.00 0.00 99 1021.2
20260507083342 12 301 0.0 0.0 0.00 0.00 0.00 99 1021.2
20260507082838 12 303 0.0 0.0 0.00 0.00 0.00 99 1021.1
20260507082334 12 314 0.0 0.0 0.00 0.00 0.00 99 1021.2
20260507081831 12 307 0.0 0.0 0.00 0.00 0.00 99 1021.2
20260507081327 12 303 0.0 0.0 0.00 0.00 0.00 99 1021.1
20260507080824 12 295 0.0 0.0 0.00 0.00 0.00 99 1021.2
20260507080320 12 294 0.0 0.0 0.00 0.00 0.00 99 1021.4
20260507075815 12 296 0.0 0.0 0.00 0.00 0.00 99 1021.5
20260507075312 12 295 0.0 0.0 0.00 0.00 0.00 99 1021.4
20260507074809 12 295 0.0 0.0 0.00 0.00 0.00 99 1021.4
20260507074306 12 295 0.0 0.0 0.00 0.00 0.00 99 1021.6
20260507073803 12 295 0.0 0.0 0.00 0.00 0.00 99 1021.4
20260507073300 12 295 0.0 0.0 0.00 0.00 0.00 99 1021.5
20260507072757 12 295 0.0 0.0 0.00 0.00 0.00 99 1021.6
20260507072255 12 300 0.0 0.0 0.00 0.00 0.00 99 1021.7
20260507071752 12 303 0.0 0.0 0.00 0.00 0.00 99 1021.9
20260507071248 12 303 0.0 0.0 0.00 0.00 0.00 99 1021.9
20260507070745 12 295 0.0 0.0 0.00 0.00 0.00 99 1022.0
20260507070242 12 305 0.0 0.0 0.00 0.00 0.00 99 1021.7
20260507065738 12 303 0.0 0.0 0.00 0.00 0.00 99 1022.0
20260507065235 12 308 0.0 0.0 0.00 0.00 0.00 99 1022.2
20260507064733 12 303 0.0 0.0 0.00 0.00 0.00 99 1022.2
20260507064232 12 294 0.0 0.0 0.00 0.00 0.00 99 1022.0
20260507063728 12 299 0.0 0.0 0.00 0.00 0.00 99 1022.4
20260507063225 12 295 0.0 0.0 0.00 0.00 0.00 99 1022.2
20260507062722 12 295 0.0 0.0 0.00 0.00 0.00 99 1022.3
20260507062220 12 294 1.6 4.8 0.00 0.00 0.00 99 1022.2
20260507061717 13 299 0.0 0.0 0.00 0.00 0.00 99 1022.4
20260507061215 13 311 0.0 0.0 0.00 0.00 0.00 99 1022.4